Location: Austin
(30.3000°N, 97.7500°W)
Time: 23:07:11
(UTC-05:00)

Cosmos 1816 Rocket - Pass Details

Date: 06 May 2026
Orbit: 950 x 999 km, 82.9° (Epoch: 13 May)

Event Time Altitude Azimuth Distance (km) Brightness Sun altitude
Rises 22:36:57 0° 354° (N) 3,624 8.2 -27.5°
Reaches altitude 10° 22:39:27 10° 355° (N) 2,677 7.4 -27.9°
Maximum altitude 22:45:35 89° 86° (E) 958 4.3 -28.9°
Enters shadow 22:45:45 85° 159° (SSE) 961 4.3 -28.9°
